Terminal Aerodrome Forecast
Issued by NWS

Home | Current Version | Previous Version | Text Only | Print | Product List | Glossary On
Versions: 1 2 3 4 5 6 7 8 9 10 11 12 13 14 15 16 17 18 19 20 21 22 23 24 25 26 27 28 29 30 31
000
FTUS41 KBUF 312100 AAB
TAFJHW
TAF AMD
KJHW 312121Z 3121/0118 24010KT P6SM FEW035 SCT100
     FM010100 22006KT P6SM FEW250
     FM011400 24008KT P6SM FEW040 SCT250
     FM011700 26005KT P6SM VCSH BKN040
      AMD LTD TO CLD VIS AND WIND=

USA.gov is the U.S. government's official web portal to all federal, state and local government web resources and services.